Location: Tabor
(49.4170°N, 14.6670°E)
Time: 15:34:15
(UTC+02:00)

ISS - Visible Passes

Search period start: 26 June 2022 00:00
Search period end: 06 July 2022 00:00
Orbit: 415 x 420 km, 51.6° (Epoch: 26 June)

Date Brightness Start Highest point End Pass type
(mag) Time Alt. Az. Time Alt. Az. Time Alt. Az.
28 Jun -2.0 04:09:36 10° SSW 04:12:16 22° SE 04:14:57 10° E visible
29 Jun -1.5 03:23:05 11° S 03:24:51 15° SE 03:26:51 10° E visible
30 Jun -3.2 04:10:32 10° SW 04:13:48 46° SSE 04:17:04 10° ENE visible
01 Jul -2.7 03:24:41 18° SSW 03:26:40 32° SSE 03:29:44 10° E visible
02 Jul -2.3 02:39:13 22° SSE 02:39:46 22° SE 02:42:29 10° E visible
02 Jul -3.7 04:12:55 10° WSW 04:16:18 88° SSE 04:19:43 10° ENE visible
03 Jul -1.5 01:53:54 14° ESE 01:53:54 14° ESE 01:55:11 10° E visible
03 Jul -3.7 03:26:53 16° WSW 03:29:28 67° SSE 03:32:52 10° ENE visible
04 Jul -3.4 02:41:42 32° SSW 02:42:53 48° SSE 02:46:11 10° ENE visible
04 Jul -3.3 04:16:22 10° W 04:19:44 63° N 04:23:09 10° ENE visible
05 Jul -2.9 01:56:40 34° SE 01:56:40 34° SE 01:59:38 10° E visible
05 Jul -3.5 03:29:52 10° W 03:33:15 73° NNW 03:36:41 10° ENE visible
